Date String (YYYY-MM-DD hh:mm:ss) UTC,Instrument flags,absolute air pressure of the measurement (hPa),sample flow rate (lpm),inlet stack bypass flow (lpm),air temperature of the measurement (°C),ambient temperature measured by the external sensor (°C),aerosol sample conditioner tube jacket temperature (°C),OPC LED temperature (°C),internal box temperature (°C),relative humidity of the measurement (%),span deviation,mass concentration of particles derived from Lorenz-Mie calculation of OPC scattering (μg/m³),mass concentration of particles derived from Lorenz-Mie calculation of OPC scattering (μg/m³),mass concentration of particles derived from Lorenz-Mie calculation of OPC scattering (μg/m³)
DateTimeUTC,F1_M11,P_M11,Q1_M11,Q2_M11,T1_M11,T2_M11,T3_M11,T4_M11,T5_M11,U1_M11,ZSPAN_M11,X2_M11,X0_M11,X1_M11
2023-11-21 12:00:00,SystemResetWarning,0841.5,5.00,000.00,019.0,018.2,000.0,027.3,020.1,18.3,0000.0,0001.92,0003.47,0001.60
2023-11-21 12:01:00,SystemResetWarning,0841.5,5.00,000.00,019.0,018.2,000.0,027.3,020.2,18.4,0000.0,0001.93,0003.41,0001.62
2023-11-21 12:02:00,SystemResetWarning,0841.4,5.01,000.00,019.0,018.2,000.0,027.3,020.2,18.4,0000.0,0001.97,0003.48,0001.64
2023-11-21 12:03:00,SystemResetWarning,0841.4,5.01,000.00,019.0,018.2,000.0,027.3,020.2,18.4,0000.0,0002.02,0003.51,0001.68
2023-11-21 12:04:00,SystemResetWarning,0841.5,5.00,000.00,019.0,018.2,000.0,027.3,020.2,18.4,0000.0,0002.03,0003.62,0001.71
2023-11-21 12:05:00,SystemResetWarning,0841.5,5.00,000.00,019.0,018.2,000.0,027.3,020.2,18.4,0000.0,0002.03,0003.75,0001.75
2023-11-21 12:06:00,SystemResetWarning,0841.5,5.00,000.00,019.0,018.2,000.0,027.3,020.2,18.4,0000.0,0002.02,0003.38,0001.76
2023-11-21 12:07:00,SystemResetWarning,0841.5,5.00,000.00,019.0,018.2,000.0,027.3,020.1,18.4,0000.0,0002.03,0003.22,0001.77
2023-11-21 12:08:00,SystemResetWarning,0841.5,5.00,000.00,019.0,018.2,000.0,027.3,020.2,18.4,0000.0,0002.10,0003.37,0001.78
2023-11-21 12:09:00,SystemResetWarning,0841.5,5.00,000.00,019.0,018.2,000.0,027.3,020.2,18.4,0000.0,0002.10,0003.40,0001.80
2023-11-21 12:10:00,SystemResetWarning,0841.5,4.99,000.00,019.0,018.2,000.0,027.3,020.2,18.4,0000.0,0002.12,0003.43,0001.80
2023-11-21 12:11:00,SystemResetWarning,0841.5,5.00,000.00,019.0,018.2,000.0,027.3,020.1,18.4,0000.0,0002.16,0003.53,0001.81
2023-11-21 12:12:00,SystemResetWarning,0841.5,4.99,000.00,019.0,018.2,000.0,027.3,020.1,18.4,0000.0,0002.21,0003.60,0001.85
2023-11-21 12:13:00,SystemResetWarning,0841.5,5.00,000.00,019.0,018.2,000.0,027.3,020.1,18.4,0000.0,0002.23,0003.63,0001.88
2023-11-21 12:14:00,SystemResetWarning,0841.5,5.00,000.00,019.0,018.2,000.0,027.3,020.1,18.4,0000.0,0002.20,0003.55,0001.88
2023-11-21 12:15:00,SystemResetWarning,0841.5,5.01,000.00,019.0,018.2,000.0,027.3,020.1,18.4,0000.0,0002.22,0003.50,0001.88
2023-11-21 12:16:00,SystemResetWarning,0841.5,5.00,000.00,019.0,018.1,000.0,027.3,020.1,18.4,0000.0,0002.21,0003.24,0001.87
2023-11-21 12:17:00,SystemResetWarning,0841.5,4.99,000.00,019.0,018.1,000.0,027.3,020.0,18.4,0000.0,0002.22,0003.13,0001.87
2023-11-21 12:18:00,SystemResetWarning,0841.5,4.99,000.00,018.9,018.1,000.0,027.3,020.0,18.4,0000.0,0002.21,0002.99,0001.87
2023-11-21 12:19:00,SystemResetWarning,0841.5,5.00,000.00,018.9,018.1,000.0,027.3,020.1,18.3,0000.0,0002.18,0002.92,0001.87
2023-11-21 12:20:00,SystemResetWarning,0841.6,5.01,000.00,018.9,018.0,000.0,027.3,020.0,18.2,0000.0,0002.21,0003.01,0001.88
2023-11-21 12:21:00,SystemResetWarning,0841.5,5.00,000.00,018.9,018.0,000.0,027.3,020.0,18.2,0000.0,0002.22,0003.02,0001.89
2023-11-21 12:22:00,SystemResetWarning,0841.6,4.99,000.00,018.9,018.0,000.0,027.3,020.0,18.3,0000.0,0002.21,0003.10,0001.91
2023-11-21 12:23:00,SystemResetWarning,0841.6,4.99,000.00,018.9,018.0,000.0,027.3,020.0,18.3,0000.0,0002.18,0003.11,0001.90
2023-11-21 12:24:00,SystemResetWarning,0841.5,4.99,000.00,018.9,018.0,000.0,027.3,020.0,18.2,0000.0,0002.16,0003.05,0001.89
2023-11-21 12:25:00,SystemResetWarning,0841.5,5.00,000.00,018.9,018.0,000.0,027.3,020.0,18.2,0000.0,0002.17,0003.09,0001.89
2023-11-21 12:26:00,SystemResetWarning,0841.5,5.01,000.00,018.9,017.9,000.0,027.3,020.0,18.2,0000.0,0002.14,0003.04,0001.89
2023-11-21 12:27:00,SystemResetWarning,0841.5,5.01,000.00,018.8,017.9,000.0,027.3,020.0,18.2,0000.0,0002.14,0003.05,0001.88
2023-11-21 12:28:00,SystemResetWarning,0841.5,5.00,000.00,018.8,017.9,000.0,027.3,020.0,18.2,0000.0,0002.16,0003.07,0001.88
2023-11-21 12:29:00,SystemResetWarning,0841.5,5.00,000.00,018.8,017.9,000.0,027.3,020.0,18.2,0000.0,0002.16,0003.12,0001.87
2023-11-21 12:30:00,SystemResetWarning,0841.5,4.99,000.00,018.8,017.9,000.0,027.3,020.0,18.1,0000.0,0002.19,0003.19,0001.87
2023-11-21 12:31:00,SystemResetWarning,0841.5,5.00,000.00,018.8,017.9,000.0,027.3,020.0,18.1,0000.0,0002.12,0003.00,0001.85
2023-11-21 12:32:00,SystemResetWarning,0841.4,4.99,000.00,018.8,017.9,000.0,027.3,020.0,18.0,0000.0,0002.10,0002.92,0001.83
2023-11-21 12:33:00,SystemResetWarning,0841.5,5.01,000.00,018.8,017.9,000.0,027.3,020.0,18.0,0000.0,0002.10,0002.83,0001.81
2023-11-21 12:34:00,SystemResetWarning,0841.5,5.01,000.00,018.8,017.9,000.0,027.3,020.0,18.0,0000.0,0002.11,0002.80,0001.80
2023-11-21 12:35:00,SystemResetWarning,0841.4,5.00,000.00,018.8,017.9,000.0,027.3,020.0,18.0,0000.0,0002.12,0002.87,0001.78
2023-11-21 12:36:00,SystemResetWarning,0841.4,4.99,000.00,018.8,017.9,000.0,027.3,020.0,17.8,0000.0,0002.09,0002.82,0001.76
2023-11-21 12:37:00,SystemResetWarning,0841.4,4.99,000.00,018.8,017.8,000.0,027.3,020.0,17.6,0000.0,0002.12,0002.93,0001.77
2023-11-21 12:38:00,SystemResetWarning,0841.4,5.00,000.00,018.8,017.8,000.0,027.3,020.0,17.8,0000.0,0002.09,0002.87,0001.75
2023-11-21 12:39:00,SystemResetWarning,0841.4,5.01,000.00,018.8,017.8,000.0,027.3,020.0,17.8,0000.0,0002.06,0002.83,0001.75
2023-11-21 12:40:00,SystemResetWarning,0841.4,5.00,000.00,018.8,017.8,000.0,027.3,020.0,17.8,0000.0,0002.04,0003.04,0001.75
2023-11-21 12:41:00,SystemResetWarning,0841.4,4.99,000.00,018.8,017.8,000.0,027.3,020.0,17.7,0000.0,0002.01,0003.50,0001.74
2023-11-21 12:42:00,SystemResetWarning,0841.4,4.99,000.00,018.8,017.8,000.0,027.3,020.0,17.5,0000.0,0002.03,0003.61,0001.74
2023-11-21 12:43:00,SystemResetWarning,0841.3,4.99,000.00,018.8,017.8,000.0,027.3,020.0,17.5,0000.0,0002.03,0003.71,0001.72
2023-11-21 12:44:00,SystemResetWarning,0841.3,4.99,000.00,018.8,017.8,000.0,027.3,020.0,17.4,0000.0,0001.99,0003.66,0001.71
2023-11-21 12:45:00,SystemResetWarning,0841.3,5.01,000.00,018.8,017.8,000.0,027.3,020.0,17.3,0000.0,0001.97,0003.63,0001.69
2023-11-21 12:46:00,SystemResetWarning,0841.2,5.00,000.00,018.8,017.8,000.0,027.3,020.0,17.3,0000.0,0001.95,0003.93,0001.68
2023-11-21 12:47:00,SystemResetWarning,0841.3,5.01,000.00,018.8,017.7,000.0,027.3,020.0,17.3,0000.0,0001.94,0004.23,0001.66
2023-11-21 12:48:00,SystemResetWarning,0841.3,5.00,000.00,018.8,017.7,000.0,027.3,020.0,17.3,0000.0,0001.89,0004.12,0001.63
2023-11-21 12:49:00,SystemResetWarning,0841.3,5.00,000.00,018.8,017.7,000.0,027.3,020.0,17.2,0000.0,0001.89,0004.15,0001.61
2023-11-21 12:50:00,SystemResetWarning,0841.3,5.00,000.00,018.8,017.7,000.0,027.3,020.0,17.2,0000.0,0001.86,0004.25,0001.57
2023-11-21 12:51:00,SystemResetWarning,0841.3,4.99,000.00,018.8,017.7,000.0,027.3,020.0,17.3,0000.0,0001.82,0003.93,0001.56
2023-11-21 12:52:00,SystemResetWarning,0841.2,5.00,000.00,018.8,017.7,000.0,027.3,020.0,17.3,0000.0,0001.79,0003.40,0001.53
2023-11-21 12:53:00,SystemResetWarning,0841.3,5.00,000.00,018.8,017.7,000.0,027.3,020.0,17.4,0000.0,0001.76,0003.70,0001.51
2023-11-21 12:54:00,SystemResetWarning,0841.3,5.00,000.00,018.8,017.7,000.0,027.3,020.0,17.4,0000.0,0001.73,0003.57,0001.51
2023-11-21 12:55:00,SystemResetWarning,0841.3,5.00,000.00,018.8,017.7,000.0,027.3,020.0,17.4,0000.0,0001.71,0003.51,0001.50
2023-11-21 12:56:00,SystemResetWarning,0841.2,4.99,000.00,018.8,017.7,000.0,027.3,020.0,17.5,0000.0,0001.67,0003.43,0001.48
2023-11-21 12:57:00,SystemResetWarning,0841.3,5.00,000.00,018.8,017.7,000.0,027.3,020.0,17.6,0000.0,0001.66,0003.04,0001.47
2023-11-21 12:58:00,SystemResetWarning,0841.2,5.01,000.00,018.8,017.7,000.0,027.3,020.0,17.7,0000.0,0001.64,0002.74,0001.47
2023-11-21 12:59:00,SystemResetWarning,0841.3,5.00,000.00,018.8,017.7,000.0,027.3,020.0,17.5,0000.0,0001.63,0002.68,0001.47
